Terug naar catalogus

SL-24 R/B

ActiefPO
NORAD 36509·ROCKET BODY·🇷🇺 Russia

Gelanceerd Apr 8, 2010 vanaf Baikonur Cosmodrome

Loading…

Volgende Passages (komende 24 uur)

TLE

VersSource: Space-Track

Epoch: Sep 14, 2026, 07:07 UTC

1 36509U 10013B   26257.29678122  .00000057  00000-0  31728-4 0  9994
2 36509  91.9178  98.0074 0272370 321.2999  36.8933 13.93868759835854

Volg SL-24 R/B in realtime met AllMySat

Download on the App Store